Погода в Новочеркасске

Россия / Оренбургская область     51°32′17″N   56°14′02″E
темп.,
°C
ветер,
м/с
пор.,
м/с
влажн.,
%
обл.,
%
осадки,
мм/ч
давл.,
гПа
погр.,
м
12 апреля, пн
пн1223:00+5вюв49865 0.0 1035189
02:00+4в47845 0.0 1035135
05:00+3вюв3577100 0.0 103677
08:00+3в246941 0.0 1036105
11:00+9в334724 0.0 1036294
14:00+14всв33365 0.0 1035470
17:00+15всв334238 0.0 1034426
20:00+10св357143 0.0 103583
13 апреля, вт
вт1323:00+7в22715 0.0 103633
02:00+6в35865 0.0 103678
05:00+4всв39925 0.0 1038201
08:00+5в4128338 0.0 1038343
11:00+11в710675 0.0 1038591
14:00+13в89655 0.0 1037804
17:00+13в896822 0.0 1037833
20:00+9в611851 0.0 1036482
14 апреля, ср
ср1423:00+6вюв6118855 0.0 1036462
02:00+7вюв61185100 0.0 1035581
05:00+7в4108799 0.0 1035388
08:00+6в511840 0.0 1034383
11:00+11вюв79540 0.0 1033620
14:00+15вюв79350 0.0 1030905
17:00+16вюв78340 0.0 10291039
20:00+12в510530 0.0 1028203
15 апреля, чт
чт1523:00+9в612690 0.0 1028270
02:00+7вюв410750 0.0 1028193
05:00+6в47760 0.0 1028114
08:00+7вюв410660 0.0 1027228
11:00+14вюв67430 0.0 1026478
14:00+18вюв56300 0.0 1024899
17:00+19вюв45260 0.0 10221089
20:00+14вюв33420 0.0 102127
16 апреля, пт
пт1623:00+10в34565 0.0 102047
02:00+8в336193 0.0 101920
05:00+7всв226386 0.0 101810
08:00+9всв115943 0.0 101833
11:00+14св113895 0.0 1017478
14:00+18с222688 0.0 10161055
17:00+19ссз232448 0.0 10151365
20:00+15зсз123963 0.0 101411